• In Uzbekistan
  • List of Countries
  • For 7 days
  • Water Temperature
  • Satellite Maps
  • Weather Map
  • Weather Widgets
  • user-avatar
    Login

    Hourly Weather Chemodurovo

    Today, 23 February, Friday

    Time Temperature Precipitation Wind Pressure Humidity
    00:00 -21°C° 0 mm 2 mps 744 mmHg 99%
    01:00 -23°C° 0 mm 2 mps 744 mmHg 99%
    02:00 -23°C° 0 mm 2 mps 744 mmHg 99%
    03:00 -23°C° 0 mm 2 mps 744 mmHg 99%
    04:00 -24°C° 0 mm 2 mps 744 mmHg 99%
    05:00 -24°C° 0 mm 2 mps 745 mmHg 99%
    06:00 -24°C° 0 mm 2 mps 745 mmHg 99%
    07:00 -24°C° 0 mm 2 mps 745 mmHg 99%
    08:00 -24°C° 0 mm 2 mps 745 mmHg 98%
    09:00 -23°C° 0 mm 2 mps 745 mmHg 97%
    10:00 -21°C° 0 mm 2 mps 745 mmHg 96%
    11:00 -20°C° 0 mm 2 mps 745 mmHg 94%
    12:00 -19°C° 0 mm 2 mps 746 mmHg 92%
    13:00 -18°C° 0 mm 2 mps 746 mmHg 91%
    14:00 -18°C° 0 mm 2 mps 746 mmHg 91%
    15:00 -17°C° 0 mm 2 mps 746 mmHg 92%
    16:00 -17°C° 0 mm 2 mps 746 mmHg 92%
    17:00 -19°C° 0 mm 2 mps 746 mmHg 94%
    18:00 -20°C° 0 mm 2 mps 746 mmHg 96%
    19:00 -23°C° 0 mm 2 mps 746 mmHg 99%
    20:00 -24°C° 0 mm 2 mps 746 mmHg 98%
    21:00 -21°C° 0 mm 1 mps 746 mmHg 98%
    22:00 -21°C° 0 mm 1 mps 746 mmHg 98%
    23:00 -22°C° 0 mm 1 mps 746 mmHg 98%

    Tomorrow, 24 February, Saturday

    Time Temperature Precipitation Wind Pressure Humidity
    00:00 -22°C° 0 mm 1 mps 746 mmHg 98%
    01:00 -22°C° 0 mm 1 mps 746 mmHg 98%
    02:00 -22°C° 0 mm 1 mps 746 mmHg 98%
    03:00 -22°C° 0 mm 1 mps 746 mmHg 98%
    04:00 -22°C° 0 mm 1 mps 747 mmHg 98%
    05:00 -26°C° 0 mm 2 mps 747 mmHg 97%
    06:00 -26°C° 0 mm 2 mps 747 mmHg 97%
    07:00 -26°C° 0 mm 2 mps 747 mmHg 97%
    08:00 -25°C° 0 mm 2 mps 747 mmHg 97%
    09:00 -23°C° 0 mm 2 mps 747 mmHg 96%
    10:00 -21°C° 0 mm 2 mps 748 mmHg 95%
    11:00 -20°C° 0 mm 2 mps 748 mmHg 93%
    12:00 -19°C° 0 mm 2 mps 748 mmHg 91%
    13:00 -17°C° 0 mm 2 mps 748 mmHg 89%
    14:00 -17°C° 0 mm 2 mps 748 mmHg 90%
    15:00 -15°C° 0 mm 1 mps 748 mmHg 91%
    16:00 -15°C° 0 mm 1 mps 748 mmHg 91%
    17:00 -17°C° 0 mm 1 mps 748 mmHg 94%
    18:00 -19°C° 0 mm 1 mps 748 mmHg 97%
    19:00 -21°C° 0 mm 0 mps 748 mmHg 99%
    20:00 -21°C° 0 mm 0 mps 747 mmHg 99%
    21:00 -22°C° 0 mm 0 mps 747 mmHg 99%
    22:00 -22°C° 0 mm 0 mps 747 mmHg 99%
    23:00 -22°C° 0 mm 0 mps 747 mmHg 99%

    Day after tomorrow, 25 February, Sunday

    Time Temperature Precipitation Wind Pressure Humidity
    00:00 -22°C° 0 mm 0 mps 747 mmHg 99%
    01:00 -22°C° 0 mm 0 mps 747 mmHg 99%
    02:00 -22°C° 0 mm 0 mps 747 mmHg 98%
    03:00 -22°C° 0 mm 1 mps 747 mmHg 98%
    04:00 -22°C° 0 mm 1 mps 746 mmHg 98%
    05:00 -22°C° 0 mm 1 mps 746 mmHg 98%
    06:00 -22°C° 0 mm 1 mps 746 mmHg 98%
    07:00 -22°C° 0 mm 1 mps 746 mmHg 98%
    08:00 -24°C° 0 mm 2 mps 746 mmHg 97%
    09:00 -23°C° 0 mm 2 mps 746 mmHg 96%
    10:00 -21°C° 0 mm 2 mps 746 mmHg 95%
    11:00 -20°C° 0 mm 2 mps 746 mmHg 94%
    12:00 -19°C° 0 mm 2 mps 746 mmHg 93%
    13:00 -18°C° 0 mm 3 mps 746 mmHg 91%
    14:00 -18°C° 0 mm 3 mps 745 mmHg 92%
    15:00 -18°C° 0 mm 3 mps 745 mmHg 92%
    16:00 -18°C° 0 mm 3 mps 745 mmHg 93%
    17:00 -21°C° 0 mm 3 mps 745 mmHg 94%
    18:00 -22°C° 0 mm 3 mps 745 mmHg 96%
    19:00 -24°C° 0 mm 3 mps 745 mmHg 98%
    20:00 -24°C° 0 mm 3 mps 745 mmHg 97%
    21:00 -25°C° 0 mm 3 mps 744 mmHg 96%
    22:00 -24°C° 0 mm 2 mps 744 mmHg 96%
    23:00 -24°C° 0 mm 2 mps 744 mmHg 95%

    26 February, Monday

    Time Temperature Precipitation Wind Pressure Humidity
    00:00 -24°C° 0 mm 2 mps 744 mmHg 95%
    01:00 -24°C° 0 mm 2 mps 744 mmHg 94%
    02:00 -24°C° 0 mm 3 mps 744 mmHg 95%
    03:00 -24°C° 0 mm 3 mps 744 mmHg 95%
    04:00 -23°C° 0 mm 3 mps 744 mmHg 96%
    05:00 -23°C° 0.1 mm 3 mps 744 mmHg 95%
    06:00 -22°C° 0.1 mm 3 mps 744 mmHg 95%
    07:00 -22°C° 0.1 mm 4 mps 744 mmHg 95%
    08:00 -22°C° 0.1 mm 4 mps 744 mmHg 95%
    09:00 -20°C° 0.1 mm 4 mps 744 mmHg 95%
    10:00 -19°C° 0.1 mm 4 mps 743 mmHg 95%
    11:00 -18°C° 0.2 mm 4 mps 743 mmHg 95%
    12:00 -17°C° 0.2 mm 4 mps 743 mmHg 95%
    13:00 -16°C° 0.2 mm 4 mps 743 mmHg 95%
    14:00 -16°C° 0.3 mm 4 mps 743 mmHg 95%
    15:00 -15°C° 0.3 mm 5 mps 743 mmHg 95%
    16:00 -15°C° 0.3 mm 5 mps 743 mmHg 95%
    17:00 -15°C° 0.4 mm 5 mps 743 mmHg 95%
    18:00 -14°C° 0.4 mm 5 mps 743 mmHg 95%
    19:00 -14°C° 0.4 mm 5 mps 743 mmHg 95%
    20:00 -14°C° 0.4 mm 5 mps 743 mmHg 95%
    21:00 -13°C° 0.4 mm 5 mps 742 mmHg 95%
    22:00 -12°C° 0.4 mm 5 mps 742 mmHg 95%
    23:00 -11°C° 0.3 mm 5 mps 742 mmHg 95%

    27 February, Tuesday

    Time Temperature Precipitation Wind Pressure Humidity
    00:00 -11°C° 0.3 mm 5 mps 742 mmHg 95%
    01:00 -10°C° 0.3 mm 5 mps 742 mmHg 95%
    02:00 -8°C° 0.2 mm 5 mps 742 mmHg 95%
    03:00 -7°C° 0.2 mm 5 mps 741 mmHg 94%
    04:00 -6°C° 0.2 mm 5 mps 741 mmHg 94%
    05:00 -6°C° 0.5 mm 5 mps 741 mmHg 94%
    06:00 -6°C° 0.5 mm 6 mps 741 mmHg 93%
    07:00 -6°C° 0.5 mm 6 mps 741 mmHg 93%
    08:00 -6°C° 0.7 mm 6 mps 741 mmHg 92%
    09:00 -6°C° 0.7 mm 6 mps 741 mmHg 92%
    10:00 -6°C° 0.7 mm 6 mps 742 mmHg 91%
    11:00 -6°C° 0.3 mm 6 mps 742 mmHg 91%
    12:00 -5°C° 0.3 mm 6 mps 742 mmHg 91%
    13:00 -4°C° 0.3 mm 6 mps 743 mmHg 91%
    14:00 -4°C° 0.2 mm 6 mps 743 mmHg 91%
    15:00 -4°C° 0.2 mm 5 mps 744 mmHg 91%
    16:00 -3°C° 0.2 mm 4 mps 744 mmHg 91%
    17:00 -3°C° 0.2 mm 4 mps 745 mmHg 91%
    18:00 -2°C° 0.2 mm 3 mps 745 mmHg 92%
    19:00 -2°C° 0.2 mm 2 mps 746 mmHg 92%
    20:00 -3°C° 0 mm 2 mps 747 mmHg 92%
    21:00 -4°C° 0 mm 2 mps 747 mmHg 92%
    22:00 -3°C° 0 mm 1 mps 748 mmHg 91%
    23:00 -4°C° 0 mm 1 mps 748 mmHg 91%

    28 February, Wednesday

    Time Temperature Precipitation Wind Pressure Humidity
    00:00 -6°C° 0 mm 1 mps 748 mmHg 90%
    01:00 -7°C° 0 mm 1 mps 749 mmHg 90%
    02:00 -8°C° 0 mm 1 mps 749 mmHg 89%
    03:00 -8°C° 0 mm 1 mps 749 mmHg 89%
    04:00 -9°C° 0 mm 1 mps 750 mmHg 89%
    05:00 -9°C° 0 mm 1 mps 750 mmHg 89%
    06:00 -10°C° 0 mm 1 mps 750 mmHg 89%
    07:00 -10°C° 0 mm 1 mps 750 mmHg 88%
    08:00 -10°C° 0 mm 2 mps 750 mmHg 88%
    09:00 -9°C° 0 mm 2 mps 751 mmHg 88%
    10:00 -8°C° 0 mm 2 mps 751 mmHg 88%
    11:00 -7°C° 0 mm 2 mps 751 mmHg 89%
    12:00 -6°C° 0 mm 2 mps 751 mmHg 89%
    13:00 -6°C° 0 mm 3 mps 751 mmHg 90%
    14:00 -6°C° 0 mm 3 mps 751 mmHg 91%
    15:00 -6°C° 0 mm 3 mps 751 mmHg 92%
    16:00 -6°C° 0 mm 3 mps 751 mmHg 93%
    17:00 -8°C° 0 mm 3 mps 751 mmHg 94%
    18:00 -9°C° 0 mm 3 mps 751 mmHg 94%
    19:00 -12°C° 0 mm 3 mps 751 mmHg 95%
    20:00 -10°C° 0 mm 2 mps 751 mmHg 94%
    21:00 -10°C° 0 mm 2 mps 751 mmHg 93%
    22:00 -10°C° 0 mm 1 mps 752 mmHg 93%
    23:00 -10°C° 0 mm 1 mps 752 mmHg 91%
    Show more